This is the latest recevied weather packets stored in our database for station/object K4XP. If no packets are shown the sender has not sent any weather packets the latest 10 day(s).
| Time | Temp. | Humidity | Pressure | Rain* | Wind** | Luminosity | Snow |
|---|---|---|---|---|---|---|---|
| 1778196922 | 21.11° C | 65% | 1009.6 hPa | 0 mm | - | - | - |
| 1778196618 | 21.11° C | 64% | 1009.4 hPa | 0 mm | - | - | - |
| 1778196319 | 21.67° C | 64% | 1009.4 hPa | 0 mm | - | - | - |
| 1778196015 | 21.67° C | 63% | 1009.2 hPa | 0 mm | - | - | - |
| 1778195730 | 22.22° C | 62% | 1009.2 hPa | 0 mm | - | - | - |
| 1778195426 | 22.78° C | 64% | 1009.2 hPa | 0 mm | - | - | - |
| 1778195122 | 22.78° C | 65% | 1009 hPa | 0 mm | - | - | - |
| 1778194818 | 22.78° C | 65% | 1009 hPa | 0 mm | - | - | - |
| 1778194514 | 23.33° C | 64% | 1008.9 hPa | 0 mm | - | - | - |
| 1778194215 | 23.89° C | 64% | 1008.6 hPa | 0 mm | - | - | - |
| 1778193911 | 23.89° C | 63% | 1008.5 hPa | 0 mm | - | - | - |
| 1778193627 | 24.44° C | 64% | 1008.4 hPa | 0 mm | - | - | - |
| 1778193324 | 24.44° C | 65% | 1008.4 hPa | 0 mm | - | - | - |
| 1778193021 | 24.44° C | 63% | 1008.2 hPa | 0 mm | - | - | - |
| 1778192716 | 25° C | 63% | 1008 hPa | 0 mm | - | - | - |
| 1778192413 | 24.44° C | 65% | 1007.9 hPa | 0 mm | - | - | - |
| 1778192113 | 24.44° C | 66% | 1007.8 hPa | 0 mm | - | - | - |
| 1778191829 | 24.44° C | 67% | 1007.8 hPa | 0 mm | - | - | - |
| 1778191526 | 24.44° C | 69% | 1007.7 hPa | 0 mm | - | - | - |
| 1778191224 | 24.44° C | 67% | 1007.7 hPa | 0 mm | - | - | - |
| 1778190919 | 24.44° C | 64% | 1007.7 hPa | 0 mm | - | - | - |
| 1778190615 | 25° C | 63% | 1007.6 hPa | 0 mm | - | - | - |
| 1778190312 | 25° C | 58% | 1007.4 hPa | 0 mm | - | - | - |
| 1778190012 | 25° C | 57% | 1007.5 hPa | 0 mm | - | - | - |
| 1778189728 | 25° C | 59% | 1007.4 hPa | 0 mm | - | - | - |
* Rain latest hour (hover to see other rain measurements)
** Current wind speed in m/s (hover to see current wind gust speed)